Location: Baix
(44.7118°N, 4.7648°E)
Time: 01:35:38
(UTC+00:00)

Vanguard 3 - Pass Details

Date: 29 November 2020
Orbit: 508 x 3262 km, 33.3° (Epoch: 19 January)

Event Time Altitude Azimuth Distance (km) Brightness Sun altitude
Rises 00:23:53 0° 254° (WSW) 3,016 - -64.2°
Reaches altitude 10° 00:26:27 10° 236° (SW) 2,340 - -64.0°
Maximum altitude 00:30:26 20° 189° (S) 2,117 - -63.6°
Drops below altitude 10° 00:35:58 10° 146° (SE) 3,411 - -63.0°
Sets 00:40:46 0° 132° (SE) 4,952 - -62.5°
